Regional Weather Roundup
Issued by NWS Upton, NY

Current Version | Previous Version | Graphics & Text | Print | Product List | Glossary Off
Versions: 1 2 3 4 5 6 7 8 9 10 11 12 13 14 15 16 17 18 19 20 21 22 23 24 25 26 27 28 29 30 31 32 33 34 35 36 37 38 39 40 41 42 43 44 45 46 47 48 49 50

000
ASUS41 KOKX 280207
RWROKX

REGIONAL WEATHER ROUNDUP
NATIONAL WEATHER SERVICE NEW YORK NY
1000 PM EDT FRI MAR 27 2015

NOTE: "FAIR" INDICATES FEW OR NO CLOUDS BELOW 12,000 FEET WITH NO
SIGNIFICANT WEATHER AND/OR OBSTRUCTIONS TO VISIBILITY.

NYZ071-072-176-178-NJZ106-104-280300-
NEW YORK CITY METRO AREA


CITY           SKY/WX    TMP DP  RH WIND       PRES   REMARKS
CENTRAL PARK   CLOUDY    43  24  47 VRB5      29.80S
LAGUARDIA APRT CLOUDY    43  28  55 N6        29.78R
KENNEDY INTL   CLOUDY    44  27  51 N13       29.78F
NEWARK/LIBERTY CLOUDY    43  24  47 NW13      29.79R
BRNX BOT. GARD   N/A    N/A N/A N/A NW3       29.79F
TETERBORO      CLOUDY    43  24  47 N7        29.78S
$$

NYZ177-179-078>081-280300-
LONG ISLAND NEW YORK

CITY           SKY/WX    TMP DP  RH WIND       PRES   REMARKS
FARMINGDALE    CLOUDY    42  29  59 N7        29.77F
ISLIP          CLOUDY    41  30  65 N8        29.74F
SHIRLEY        CLOUDY    39  33  79 N6        29.76F WCI  35
WESTHAMPTON    CLOUDY    39  34  82 N5        29.77S
MONTAUK POINT    N/A     41  37  86 CALM      29.77S
$$

NYZ052-065-067-280300-
HUDSON VALLEY

CITY           SKY/WX    TMP DP  RH WIND       PRES   REMARKS
WHITE PLAINS   CLOUDY    40  26  57 N6        29.77R
NEWBURGH       CLOUDY    39  27  60 CALM      29.80R
MONTGOMERY     CLOUDY    38  25  59 NW7       29.78R WCI  33
POUGHKEEPSIE   CLOUDY    40  25  55 N8        29.80R WCI  34
ALBANY         FLURRIES  36  22  56 NW12G25   29.83R WCI  28
$$

NJZ001-105-106-008-010-013-015-019>022-104-280300-
NEW JERSEY

CITY           SKY/WX    TMP DP  RH WIND       PRES   REMARKS
NEWARK/LIBERTY CLOUDY    43  24  47 NW13      29.79R
TETERBORO      CLOUDY    43  24  47 N7        29.78S
CALDWELL       CLOUDY    41  23  48 N5        29.80R
MORRISTOWN     CLOUDY    41  25  52 N3        29.80R
SOMERVILLE     CLOUDY    40  27  59 N6        29.77F
SUSSEX         PTCLDY    37  23  56 NW5       29.81S WCI  33
ANDOVER          N/A     31  26  82 CALM      29.79F
TRENTON        CLOUDY    41  25  53 N7        29.79S
MILLVILLE      MOCLDY    36  34  92 W3        29.78R
ATLANTIC CITY  CLOUDY    41  32  70 N7        29.78S
WRIGHTSTOWN    CLOUDY    38  29  72 NW3       29.77S
TOMS RIVER     CLOUDY    41  30  65 N5        29.78F
BELMAR         CLOUDY    41  27  56 N7        29.78F
$$

PAZ047>061-062-071-280300-
EASTERN PENNSYLVANIA

CITY           SKY/WX    TMP DP  RH WIND       PRES   REMARKS
PHILADELPHIA   CLOUDY    45  24  43 N9G20     29.81R
ALLENTOWN      CLOUDY    39  24  55 N3        29.81S
SCRANTON       CLOUDY    34  25  69 N9        29.81S WCI  27
$$

CTZ002-004>006-009-010-012-RIZ004-006-007-MAZ004-011-015-280300-
SOUTHERN NEW ENGLAND
 IN CT

CITY           SKY/WX    TMP DP  RH WIND       PRES   REMARKS
BRADLEY INTL   MOCLDY    40  28  62 CALM      29.77R
HARTFORD       CLOUDY    41  28  60 VRB5      29.77S
DANBURY        CLOUDY    37  27  67 NW3       29.79R
WTRBRY/OXFORD  MOCLDY    36  23  60 CALM      29.78R
BRIDGEPORT     CLOUDY    41  27  57 NW3       29.78S
MERIDEN        CLOUDY    36  30  79 W3        29.78R
NEW HAVEN      CLOUDY    41  27  57 NW5       29.78R
CHESTER        CLOUDY    39  32  75 NW6       29.76R WCI  35
GROTON         CLOUDY    41  37  86 NW3       29.76R
WILLIMANTIC    CLOUDY    40  32  73 CALM      29.76R

 IN RI

CITY           SKY/WX    TMP DP  RH WIND       PRES   REMARKS
PROVIDENCE     CLOUDY    40  37  89 W3        29.77R
BLOCK ISLAND   CLOUDY    39  36  87 CALM      29.76R
WESTERLY       CLOUDY    40  38  93 CALM      29.77R

 IN MA

CITY           SKY/WX    TMP DP  RH WIND       PRES   REMARKS
BOSTON         CLOUDY    38  35  89 SW5       29.76R WCI  34
WORCESTER      CLOUDY    37  31  78 W6        29.73R WCI  32
WESTFIELD      CLOUDY    37  28  70 CALM      29.76R
PROVINCETOWN   CLOUDY    37  34  87 N5        29.75S WCI  34
NANTUCKET      CLOUDY    38  36  92 N10       29.73R WCI  31
$$

ANZ330-335-338-340-345-350-353-355-280300-
COASTAL MARINE OBSERVATIONS


STATION/POSITION TIME  SKY/WX   TEMP    WIND        PRES    VSBY  WAVE
                                AIR SEA DIR/SP/G                  HT/PER
                 (UTC)          (F)     (DEG/KT/KT) (MB)    (MI)  (FT/S)
NY HARB ENTRANCE 0150            41 39  340/  6/  8 1007.9          4/10
4S FIRE IS       0103               36                N/A           4/11
20S FIRE ISLAND  0050               38              1008.9          4/11
23SW MTP         0150                                 N/A           7/11
HUDSON CANYON    NOT AVBL
EXECUTION ROCKS  NOT AVBL
WESTERN LI SOUND NOT AVBL
CENTRAL LI SOUND NOT AVBL
EASTERN LI SOUND NOT AVBL
ROBBINS REEF     0100            43     350/ 11/ 14 1007.5
$$


>>>>>>>>>>>>>>>>>>>>>>>>>>>> KEY <<<<<<<<<<<<<<<<<<<<<<<<<<<
>                                                          <
>     SKY/WX - SKY CONDITION/PRESENT WEATHER               <
>     TMP    - TEMPERATURE IN FAHRENHEIT                   <
>     DP     - DEWPOINT IN FAHRENHEIT                      <
>     RH     - RELATIVE HUMIDITY IN PERCENT                <
>     WIND   - DIRECTION AND SPEED IN MPH                  <
>     PRES   - MEAN SEA LEVEL PRESSURE IN INCHES OF HG     <
>     WCI    - WIND CHILL INDEX                            <
>     VSB    - VISIBILITY IN MILES                         <
>     HX     - HEAT INDEX                                  <
>     TC     - TEMPERATURE IN CELSIUS                      <
>     VRB    - VARIABLE WIND DIRECTION                     <
>                                                          <
>>>>>>>>>>>>>>>>>>>>>>>>>>>> KEY <<<<<<<<<<<<<<<<<<<<<<<<<<<




USA.gov is the U.S. government's official web portal to all federal, state and local government web resources and services.